Evans Head Observation History
Time Wind Speed Temp Pressure Rel. Hum Rain
11/04:30am NNW 4-5 kts 18.7°c 1014.4 hPa 92% 0.0mm
11/04:00am NNW 5-7 kts 18.9°c 1014.5 hPa 93% 0.0mm
11/03:30am NNW 7-9 kts 18.9°c 1014.2 hPa 93% 0.0mm
11/03:00am N 7-8 kts 18.9°c 1014.4 hPa 93% 0.0mm
11/02:30am N 5-6 kts 19.0°c 1014.9 hPa 91% 0.0mm
11/02:00am N 6-8 kts 19.2°c 1015.0 hPa 91% 0.0mm
11/01:30am NNW 5-7 kts 19.3°c 1015.4 hPa 90% 0.0mm
11/01:00am N 7-9 kts 19.7°c 1015.3 hPa 90% 0.0mm
11/12:30am N 8-10 kts 19.8°c 1015.5 hPa 90% 0.0mm
11/12:00am NNE 8-10 kts 20.1°c 1015.6 hPa 89% 0.0mm
Time Wind Speed Temp Pressure Rel. Hum Rain
10/11:30pm NNE 7-10 kts 20.1°c 1015.9 hPa 89% 0.0mm
10/11:00pm N 7-10 kts 20.1°c 1015.9 hPa 88% 0.0mm
10/10:30pm N 8-11 kts 20.6°c 1015.9 hPa 87% 0.0mm
10/10:00pm N 9-13 kts 20.9°c 1015.8 hPa 85% 0.0mm
10/09:30pm N 9-13 kts 21.1°c 1015.6 hPa 85% 0.0mm
10/09:00pm N 9-15 kts 21.4°c 1015.4 hPa 83% 0.0mm
10/08:30pm N 9-15 kts 21.6°c 1015.1 hPa 81% 0.0mm
10/08:00pm N 10-16 kts 22.1°c 1014.8 hPa 79% 0.0mm
10/07:30pm N 10-14 kts 22.4°c 1014.4 hPa 78% 0.0mm
10/07:00pm N 10-15 kts 22.8°c 1014.0 hPa 75% 0.0mm
10/06:30pm N 11-17 kts 24.1°c 1013.7 hPa 71% 0.0mm
10/06:00pm N 14-22 kts 24.3°c 1013.4 hPa 70% 0.0mm
10/05:30pm N 11-19 kts 25.4°c 1013.1 hPa 68% 0.0mm
10/05:00pm NNE 13-20 kts 24.9°c 1012.9 hPa 70% 0.0mm
10/04:30pm NNE 11-19 kts 26.1°c 1013.3 hPa 67% 0.0mm
10/04:00pm NNE 11-21 kts 25.7°c 1013.3 hPa 66% 0.0mm
10/03:30pm NNE 12-20 kts 26.5°c 1013.8 hPa 61% 0.0mm
10/03:00pm NNE 11-19 kts 27.1°c 1014.1 hPa 59% 0.0mm
10/02:30pm NE 12-18 kts 28.0°c 1014.3 hPa 56% 0.0mm
10/02:00pm NNE 11-17 kts 28.1°c 1014.5 hPa 55% 0.0mm
10/01:30pm NE 11-15 kts 28.3°c 1014.8 hPa 60% 0.0mm
10/01:00pm ENE 12-17 kts 26.7°c 1015.1 hPa 63% 0.0mm
10/12:30pm ENE 12-18 kts 26.6°c 1015.3 hPa 60% 0.0mm
10/12:00pm ENE 12-16 kts 26.8°c 1015.6 hPa 65% 0.0mm
10/11:30am ENE 10-19 kts 24.4°c 1015.6 hPa 68% 0.0mm
10/11:00am E 8-11 kts 23.9°c 1016.2 hPa 74% 0.0mm
10/10:30am E 8-10 kts 24.6°c 1016.3 hPa 71% 0.0mm
10/10:00am NNW 4-7 kts 25.8°c 1016.4 hPa 66% 0.0mm
10/09:30am NW 6-9 kts 26.1°c 1016.5 hPa 61% 0.0mm
10/09:00am N 7-10 kts 25.7°c 1016.7 hPa 61% 0.0mm
10/08:30am N 5-7 kts 25.1°c 1016.7 hPa 69% 0.0mm
10/08:00am CALM 0-4 kts 23.1°c 1016.6 hPa 75% 0.0mm
10/07:30am CALM 0 kts 21.7°c 1016.4 hPa 81% 0.0mm
10/07:00am CALM 0 kts 20.6°c 1016.0 hPa 87% 0.0mm
10/06:30am WNW 4-5 kts 19.2°c 1016.0 hPa 91% 0.0mm
10/06:00am NW 4-5 kts 18.4°c 1015.7 hPa 93% 0.0mm
10/05:30am WNW 2-3 kts 18.2°c 1015.7 hPa 93% 0.0mm
10/05:00am NNW 5-6 kts 18.0°c 1015.5 hPa 92% 0.0mm
10/04:30am NNW 4-5 kts 18.1°c 1015.3 hPa 92% 0.0mm
10/04:00am NW 3-4 kts 18.3°c 1015.3 hPa 92% 0.0mm
10/03:30am NNW 4-5 kts 18.2°c 1015.6 hPa 93% 0.0mm
10/03:00am N 5-7 kts 18.1°c 1015.5 hPa 92% 0.0mm
10/02:30am N 5-7 kts 18.2°c 1015.8 hPa 90% 0.0mm
10/02:00am N 5-6 kts 18.7°c 1016.4 hPa 91% 0.0mm
10/01:30am N 5-7 kts 19.0°c 1017.0 hPa 89% 0.0mm
10/01:00am N 5-7 kts 19.1°c 1017.6 hPa 91% 0.0mm
10/12:30am N 5-6 kts 19.0°c 1018.0 hPa 90% 0.0mm
10/12:00am N 5-7 kts 19.2°c 1018.1 hPa 91% 0.0mm
Time Wind Speed Temp Pressure Rel. Hum Rain
09/11:30pm N 5-6 kts 19.2°c 1018.0 hPa 88% 0.0mm
09/11:00pm N 5-7 kts 19.7°c 1017.9 hPa 88% 0.0mm
09/10:30pm N 5-7 kts 19.8°c 1017.9 hPa 84% 0.0mm
09/10:00pm N 6-9 kts 20.4°c 1017.8 hPa 83% 0.0mm
09/09:30pm N 7-10 kts 20.5°c 1017.5 hPa 83% 0.0mm
09/09:00pm NNE 7-12 kts 20.4°c 1017.2 hPa 84% 0.0mm
09/08:30pm NNE 8-13 kts 20.8°c 1017.0 hPa 82% 0.0mm
09/08:00pm NNE 7-12 kts 21.0°c 1017.0 hPa 82% 0.0mm
09/07:30pm NNE 7-14 kts 21.5°c 1016.9 hPa 78% 0.0mm
09/07:00pm NNE 8-13 kts 22.5°c 1017.1 hPa 73% 0.0mm
09/06:30pm NNE 6-11 kts 22.6°c 1017.1 hPa 72% 0.0mm
09/06:00pm NE 10-15 kts 22.9°c 1016.7 hPa 69% 0.0mm
09/05:30pm NE 11-15 kts 23.7°c 1016.6 hPa 65% 0.0mm
09/05:00pm ENE 11-15 kts 23.7°c 1016.9 hPa 67% 0.0mm
09/04:30pm ENE 10-15 kts 24.8°c 1017.1 hPa 62% 0.0mm
09/04:00pm ENE 10-15 kts 26.1°c 1017.4 hPa 60% 0.0mm
09/03:30pm ENE 12-15 kts 24.9°c 1017.5 hPa 62% 0.0mm
09/03:00pm ENE 11-16 kts 25.4°c 1017.7 hPa 59% 0.0mm
09/02:30pm ENE 10-15 kts 25.8°c 1017.8 hPa 56% 0.0mm
09/02:00pm ENE 11-16 kts 25.3°c 1018.0 hPa 59% 0.0mm
09/01:30pm ENE 11-16 kts 25.6°c 1018.2 hPa 58% 0.0mm
09/01:00pm ENE 11-16 kts 25.5°c 1018.5 hPa 60% 0.0mm
09/12:30pm NE 11-15 kts 25.9°c 1018.9 hPa 58% 0.0mm
09/12:00pm ENE 10-15 kts 25.6°c 1019.2 hPa 62% 0.0mm
09/11:30am E 8-12 kts 25.1°c 1019.3 hPa 65% 0.0mm
09/11:00am E 6-9 kts 24.5°c 1019.3 hPa 67% 0.0mm
09/10:30am ESE 4-7 kts 23.3°c 1019.4 hPa 74% 0.0mm
09/10:00am S 6-9 kts 22.4°c 1019.6 hPa 83% 0.0mm
09/09:30am W 3-5 kts 20.9°c 1019.7 hPa 90% 0.0mm
09/09:00am SW 5-6 kts 19.6°c 1019.6 hPa 92% 0.6mm
09/08:30am WSW 4-5 kts 19.2°c 1019.6 hPa 92% 0.6mm
09/08:00am WNW 4-5 kts 18.8°c 1019.5 hPa 91% 0.6mm
09/07:30am SW 6-7 kts 18.6°c 1019.5 hPa 90% 0.4mm
09/07:00am W 5-7 kts 18.7°c 1019.4 hPa 85% 0.0mm
09/06:30am NNE 2-4 kts 20.2°c 1018.9 hPa 79% 0.0mm
09/06:00am NE 5-8 kts 20.3°c 1018.8 hPa 80% 0.0mm
09/05:30am ENE 3-5 kts 20.6°c 1018.6 hPa 76% 0.0mm
09/05:00am CALM 0 kts 20.5°c 1018.7 hPa 77% 0.0mm
09/04:30am ENE 4-5 kts 20.3°c 1018.6 hPa 79% 0.0mm
09/04:00am CALM 0 kts 19.7°c 1018.7 hPa 78% 0.0mm
09/03:30am ESE 1-3 kts 19.8°c 1018.8 hPa 78% 0.0mm
09/03:00am ENE 4-5 kts 20.0°c 1018.9 hPa 75% 0.0mm
09/02:30am E 5-6 kts 20.0°c 1019.1 hPa 75% 0.0mm
09/02:00am E 6-7 kts 20.2°c 1019.4 hPa 75% 0.0mm
09/01:30am E 4-5 kts 20.5°c 1020.2 hPa 73% 0.0mm
09/01:00am NE 3-5 kts 20.7°c 1020.7 hPa 72% 0.0mm
09/12:30am NE 4-6 kts 20.7°c 1021.0 hPa 71% 0.0mm
09/12:00am ENE 6-9 kts 20.9°c 1021.3 hPa 71% 0.0mm